Location: Alphen
(52.1351°N, 4.6549°E)
Time: 01:59:07
(UTC+00:00)

Cosmos 1758 Rocket - Pass Details

Date: 27 January 2021
Orbit: 602 x 636 km, 82.5° (Epoch: 27 February)

Event Time Altitude Azimuth Distance (km) Brightness Sun altitude
Exits shadow 05:56:20 - 339° (NNW) 2,503 6.4 -14.1°
Reaches altitude 10° 05:57:35 10° 334° (NNW) 2,032 5.8 -13.9°
Maximum altitude 06:01:40 35° 269° (W) 1,032 4.2 -13.3°
Drops below altitude 10° 06:05:41 10° 204° (SSW) 2,002 6.1 -12.7°
Sets 06:08:02 0° 196° (SSW) 2,899 7.0 -12.3°
